This is the latest recevied weather packets stored in our database for station/object W7TRD. If no packets are shown the sender has not sent any weather packets the latest 10 day(s).
| Time | Temp. | Humidity | Pressure | Rain* | Wind** | Luminosity | Snow |
|---|---|---|---|---|---|---|---|
| 1777663738 | 21.11° C | 55% | 1017.3 hPa | 0 mm | - | 739 W/m² | - |
| 1777663435 | 21.11° C | 56% | 1017.4 hPa | 0 mm | - | 591 W/m² | - |
| 1777663132 | 20.56° C | 57% | 1017.1 hPa | 0 mm | - | 775 W/m² | - |
| 1777662829 | 20.56° C | 58% | 1017.3 hPa | 0 mm | - | 744 W/m² | - |
| 1777662526 | 19.44° C | 60% | 1017.5 hPa | 0 mm | - | 534 W/m² | - |
| 1777662222 | 20° C | 61% | 1017.7 hPa | 0 mm | - | 679 W/m² | - |
| 1777661917 | 20.56° C | 60% | 1017.6 hPa | 0 mm | - | 640 W/m² | - |
| 1777661614 | 20.56° C | 59% | 1017.7 hPa | 0 mm | - | 579 W/m² | - |
| 1777661309 | 20° C | 60% | 1017.8 hPa | 0 mm | - | 592 W/m² | - |
| 1777661005 | 19.44° C | 59% | 1017.7 hPa | 0 mm | - | 629 W/m² | - |
| 1777660701 | 20° C | 59% | 1017.7 hPa | 0 mm | - | 533 W/m² | - |
| 1777660399 | 19.44° C | 59% | 1017.9 hPa | 0 mm | - | 629 W/m² | - |
| 1777660095 | 19.44° C | 60% | 1017.7 hPa | 0 mm | - | 653 W/m² | - |
| 1777659792 | 18.89° C | 62% | 1017.6 hPa | 0 mm | - | 602 W/m² | - |
| 1777659489 | 18.89° C | 61% | 1017.9 hPa | 0 mm | - | 677 W/m² | - |
| 1777659186 | 18.33° C | 62% | 1017.7 hPa | 0 mm | - | 622 W/m² | - |
| 1777658883 | 18.89° C | 62% | 1017.9 hPa | 0 mm | - | 593 W/m² | - |
| 1777658579 | 18.89° C | 62% | 1017.8 hPa | 0 mm | - | 453 W/m² | - |
| 1777658276 | 18.89° C | 64% | 1017.8 hPa | 0 mm | - | 553 W/m² | - |
| 1777657973 | 18.89° C | 62% | 1017.8 hPa | 0 mm | - | 528 W/m² | - |
| 1777657669 | 18.89° C | 62% | 1017.8 hPa | 0 mm | - | 514 W/m² | - |
| 1777657367 | 18.33° C | 63% | 1017.9 hPa | 0 mm | - | 570 W/m² | - |
| 1777657065 | 18.33° C | 63% | 1017.9 hPa | 0 mm | - | 553 W/m² | - |
| 1777656761 | 17.78° C | 62% | 1018 hPa | 0 mm | - | 526 W/m² | - |
| 1777656457 | 17.78° C | 63% | 1017.8 hPa | 0 mm | - | 543 W/m² | - |
* Rain latest hour (hover to see other rain measurements)
** Current wind speed in m/s (hover to see current wind gust speed)